Location: *
(45.9500°N, 9.0833°E)
Time: 14:40:39
(UTC+00:00)

Cosmos 1727 Rocket - Pass Details

Date: 03 March 2021
Orbit: 961 x 996 km, 82.9° (Epoch: 19 April)

Event Time Altitude Azimuth Distance (km) Brightness Sun altitude
Rises 18:42:17 0° 357° (N) 3,659 7.1 -16.3°
Reaches altitude 10° 18:45:01 10° 6° (N) 2,709 6.4 -16.7°
Maximum altitude 18:50:42 37° 72° (ENE) 1,469 4.5 -17.7°
Enters shadow 18:52:54 28° 112° (ESE) 1,717 4.7 -18.1°
